AirNav   Pilot Hours Calculator
 
 1251 users online  

C89 Sylvania Airport
Sturtevant, Wisconsin, USA

GOING TO STURTEVANT?


FAA INFORMATION EFFECTIVE 25 MARCH 2021

Location

FAA Identifier: C89
Lat/Long: 42-42-11.7000N 087-57-32.3000W
42-42.195000N 087-57.538333W
42.7032500,-87.9589722
(estimated)
Elevation: 788.3 ft. / 240 m (estimated)
Variation: 01W (1985)
From city: 3 miles W of STURTEVANT, WI
Time zone: UTC -5 (UTC -6 during Standard Time)
Zip code: 53177

Airport Operations

Airport use: Open to the public
Control tower: no
ARTCC: CHICAGO CENTER
FSS: GREEN BAY FLIGHT SERVICE STATION
NOTAMs facility: GRB (NOTAM-D service available)
Attendance: IRREG
Wind indicator: lighted
Segmented circle: no
Lights: ACTVT PAPI RY 26L; MIRL RY 08R/26L - CTAF.
Beacon: white-green (lighted land airport)
ACTVT ARPT BCN - CTAF.

Airport Communications

CTAF/UNICOM: 122.8
WX ASOS at ENW (7 nm S): PHONE 262-652-7730
WX ASOS at RAC (7 nm NE): 121.425 (262-635-0959)
WX ASOS at MKE (15 nm N): 126.4 (414-489-2168)
WX AWOS-3 at BUU (15 nm W): 125.275 (262-757-0907)
WX ASOS at UGN (17 nm S): PHONE 847-782-0876
WX AWOS-3PT at 57C (19 nm W): 118.125 (262-642-1845)

Nearby radio navigation aids

VOR radial/distance  VOR name  Freq  Var
BAEr148/28.6BADGER VOR/DME116.4002E
OBKr001/28.9NORTHBROOK VOR/DME113.0002W

 
NDB name  Hdg/Dist  Freq  Var  ID
CODEE022/9.138902WEN . -.

Airport Services

Fuel available: 100LL
24 HR FUEL AVBL WITH CREDIT CARD.
Parking: hangars and tiedowns
Airframe service: NONE
Powerplant service: NONE
Bottled oxygen: NONE
Bulk oxygen: NONE

Runway Information

Runway 8R/26L

Dimensions: 2272 x 38 ft. / 693 x 12 m
Surface: asphalt, in good condition
Runway edge lights: non-standard
RY 08R/26L NSTD MIRL.
RUNWAY 8R  RUNWAY 26L
Latitude: 42-42.153878N42-42.220610N
Longitude: 087-57.786652W087-57.287683W
Elevation: 788.3 ft.771.0 ft.
Traffic pattern: leftleft
Displaced threshold: no121 ft.
Markings: basic, in good conditionbasic, in good condition
Visual slope indicator: 2-light PAPI on left
Runway end identifier lights: nono
Touchdown point: yes, no lightsyes, no lights
Obstructions: 18 ft. road, 320 ft. from runway, 140 ft. left of centerline, 6:1 slope to clear
20 FT TREES 25 FT FM THR 100 FT R.
18 ft. road, 200 ft. from runway
ROAD 33' LEFT OF CNTRLN.

Runway 8L/26R

Dimensions: 2343 x 120 ft. / 714 x 37 m
Surface: turf, in good condition
RUF AREA IN FNT OF SKY DIVING HNGR APPXLY 800 FT W OF RWY 26R THLD.
RUNWAY 8L  RUNWAY 26R
Latitude: 42-42.167838N42-42.236087N
Longitude: 087-57.797432W087-57.282768W
Elevation: 787.3 ft.769.9 ft.
Traffic pattern: leftleft
Markings: nonenone
Runway end identifier lights: nono
Touchdown point: yes, no lightsyes, no lights
Obstructions: 18 ft. road, 110 ft. from runway, 150 ft. left of centerline, 6:1 slope to clear18 ft. road, 175 ft. from runway, 9:1 slope to clear

Airport Ownership and Management from official FAA records

Ownership: Privately-owned
Owner: ROBERT MC KAY
2624 SOUTH SYLVANIA AVE
STURTEVANT, WI 53177
Phone (847) 917-3209
Manager: PHIL LARDER
2624 SOUTH SYLVANIA AVE
STURTEVANT, WI 53177
Phone (847) 917-3209
EMAIL ADDRESS: PELARDER@AOL.COM (ALL LOWER CASE)

Airport Operational Statistics

Aircraft based on the field: 47
Single engine airplanes: 43
Multi engine airplanes: 3
Ultralights: 1
    
Aircraft operations: avg 63/day *
65% local general aviation
35% transient general aviation
* for 12-month period ending 18 June 2019

Additional Remarks

ULTRALIGHTS ON & IN VCNTY OF ARPT.
PARA ATVT ON & IN VCNTY OF ARPT.
RY 08R/26L CLSD TO HEL AUTOROTATION MNVRS.
FOR CD CTC CHICAGO ARTCC AT 630-906-8921.

Instrument Procedures

There are no published instrument procedures at C89.

Some nearby airports with instrument procedures:

KENW - Kenosha Regional Airport (7 nm S)
KRAC - Batten International Airport (7 nm NE)
KMKE - General Mitchell International Airport (15 nm N)
KBUU - Burlington Municipal Airport (15 nm W)
KUGN - Waukegan NTL Airport (17 nm S)
57C - East Troy Municipal Airport (19 nm W)
C02 - Grand Geneva Resort Airport (20 nm W)
 
Loc | Ops | Rwys | IFR | FBO | Links
Com | Nav | Svcs | Stats | Notes
Area around C89 (Sylvania Airport)
 
Road maps at: MapQuest Bing Google
 
Aerial photo
WARNING: Photo may not be current or correct
Aerial photo of C89 (Sylvania Airport)
Photo taken 25-Sep-2006

Do you have a better or more recent aerial photo of Sylvania Airport that you would like to share? If so, please send us your photo.

 
Sectional chart

 
Airport distance calculator
Flying to Sylvania Airport? Find the distance to fly.

From to C89

Sunrise and sunset
Times for 18-Apr-2021
 Local
(UTC-5)
 Zulu
(UTC)
Morning civil twilight05:3710:37
Sunrise06:0711:07
Sunset19:3600:36
Evening civil twilight20:0601:06

Current date and time
Zulu (UTC)  18-Apr-2021 22:23:27
Local (UTC-5)  18-Apr-2021 17:23:27
 
METAR
KENW 
6nm S 
182153Z 24010KT 10SM OVC085 16/M01 A2982 RMK AO2 SLP101 T01611011
KRAC 
7nm NE 
182153Z AUTO 17006KT 10SM BKN085 OVC110 11/02 A2984 RMK AO2 SLP109 T01060022
KMKE 
15nm N 
182152Z 12007KT 10SM SCT080 BKN100 BKN250 12/04 A2982 RMK AO2 SLP101 T01220044
KBUU 
15nm W 
182155Z AUTO 20005KT 10SM 15/00 A2982 RMK AO2 T01501003 PWINO
KUGN 
18nm S 
182155Z 17005KT 10SM BKN100 BKN120 15/01 A2982 RMK AO2 SLP103 T01500011
K57C 
19nm W 
182155Z AUTO 24008KT 190V270 10SM BKN075 OVC110 15/M01 A2981 RMK AO2 T01541012
TAF
KENW 
6nm S 
181721Z 1818/1918 28010KT P6SM BKN090 FM182100 26009KT P6SM VCSH BKN060 FM190000 21008KT P6SM SCT050 FM190500 22007KT P6SM FEW200 FM191000 26011KT P6SM SCT080 FM191200 30011KT P6SM VCSH BKN025 OVC500
KMKE 
15nm N 
181721Z 1818/1924 VRB06KT P6SM BKN050 FM182100 16009KT P6SM VCSH BKN050 FM190300 21007KT P6SM FEW150 FM191000 27011KT P6SM SCT060 FM191100 30012G23KT P6SM VCSH BKN020 FM191800 31010KT P6SM VCSH OVC040
NOTAMs
Click for the latest NOTAMs
NOTAMs are issued by the DoD/FAA and will open in a separate window not controlled by AirNav.

 

 
 

Would you like to see your business listed on this page?

 If your business provides an interesting product or service to pilots, flight crews, aircraft, or users of the Sylvania Airport, you should consider listing it here.  To start the listing process, click on the button below
 
Add a business
 

Other Pages about Sylvania Airport

Page from the Wisconsin airport directory (PDF)
 
Update a link
 
Copyright © AirNav, LLC. All rights reserved. Privacy Policy  Contact